Regional Weather Roundup
Issued by NWS Kansas City/Pleasant Hill, MO

Home | Current Version | Previous Version | Graphics & Text | Print | Product List | Glossary Off
Versions: 1 2 3 4 5 6 7 8 9 10 11 12 13 14 15 16 17 18 19 20 21 22 23 24 25 26 27 28

000
ASUS43 KEAX 260510
RWREAX

WEATHER ROUNDUP FOR EASTERN KANSAS AND NORTHWEST MISSOURI
NATIONAL WEATHER SERVICE KANSAS CITY/PLEASANT HILL MO
1200 AM CDT MON JUN 26 2017

KSZ040-057-103>105-MOZ028-029-037-043-260600-
...KANSAS CITY METROPOLITAN AREA...

CITY           SKY/WX    TMP DP  RH WIND       PRES   REMARKS
K.C. INTL      CLEAR     57  53  86 CALM      30.24S
K.C. DOWNTOWN  CLEAR     60  52  74 CALM      30.24R
LEES SUMMIT    CLEAR     59  51  75 W3        30.25R
OLATHE - IXD   MOCLDY    58  54  86 CALM      30.26R
OLATHE - OJC   MOCLDY    57  53  86 CALM      30.25R
LAWRENCE       CLEAR     53  53 100 NW3       30.26R

$$

MOZ001>008-011>017-020>025-030>033-038>040-044>046-053-054-260600-
...NORTHERN AND CENTRAL MISSOURI...

CITY           SKY/WX    TMP DP  RH WIND       PRES   REMARKS
ST. JOSEPH     CLEAR     57  54  89 SW5       30.24S
MOSBY          CLEAR     54  52  94 CALM      30.24S
WARRENSBURG    CLEAR     55  50  82 W5        30.23S
WHITEMAN AFB   CLEAR     55  55 100 SW6       30.22S
CLINTON        CLOUDY    63  55  77 CALM      30.24S
SEDALIA        CLEAR     58  54  86 NW5       30.24R
WARSAW         NOT AVBL
CHILLICOTHE      N/A     55  51  86 CALM      30.24R
KIRKSVILLE     CLEAR     53  50  89 NW3       30.22R

$$

MOZ041-047>049-056>058-063>065-088>090-097-260600-
...EASTERN AND SOUTHERN MISSOURI...

CITY           SKY/WX    TMP DP  RH WIND       PRES   REMARKS
ST. LOUIS INTL CLEAR     67  48  50 CALM      30.20R
SPIRIT OF STL  CLEAR     59  54  83 CALM      30.19R
COLUMBIA       CLEAR     61  51  70 W5        30.22S
JEFFERSON CITY CLEAR     64  52  64 N3        30.22R
ROLLA          CLOUDY    64  50  60 NW6       30.22S
OSAGE BEACH    CLOUDY    65  51  60 CALM      30.23S
SPRINGFIELD    MOCLDY    70  56  61 CALM      30.23S
BRANSON          N/A     68  57  68 CALM      30.24S
JOPLIN         CLOUDY    68  57  68 CALM      30.24R
WEST PLAINS    CLEAR     66  54  65 N5        30.24R

$$

IAZ060-094-KSZ022-034>040-054-083-096-NEZ052-066-093-260600-
...KANSAS...SOUTHEAST NEBRASKA AND IOWA...

CITY           SKY/WX    TMP DP  RH WIND       PRES   REMARKS
TOPEKA         CLEAR     58  57  97 CALM      30.26R
MANHATTAN      CLOUDY    58  57  97 CALM      30.25S
EMPORIA        CLOUDY    61  58  90 CALM      30.26R
CHANUTE          N/A    N/A N/A N/A MISG      30.24S
WICHITA        CLOUDY    64  55  72 E8        30.23F
OMAHA          CLEAR     63  46  54 E5        30.19S
LINCOLN        MOCLDY    64  49  57 SW7       30.21S
FALLS CITY     CLEAR     57  52  83 S5        30.21F
LAMONI         CLEAR     61  45  55 W6        30.21F
DES MOINES     CLEAR     63  45  51 CALM      30.20R

$$





USA.gov is the U.S. government's official web portal to all federal, state and local government web resources and services.